[[{"header":{"parameterUnit":"m.s-1","parameterCategory":1,"la1":30.2991,"la2":30.254,"lo1":-89.0895,"lo2":-89.0444,"dy":0.0017,"dx":0.0017,"nx":28,"ny":28,"refTime":"2023-09-08T09:00:00:Z","depth":0,"parameterNumber":2,"parameterNumberName":"U-component_of_WINDS"},"data":[0,0,0,0,0,0,0,0,0,0,0,0,0,0,0,0,0,0,0,0,0,0,0,0,0,0,0,0,0,0,0,0,0,0,0,0,0,0,0,0,0,0,0,0,0,0,0,0,0,0,0,0,0,0,0,0,0,0,-0.2858,-0.2858,0,-0.2829,-0.2828,-0.2828,-0.2786,-0.2786,-0.2785,-0.2784,-0.2755,-0.2755,-0.2754,0,0,0,0,0,0,0,0,0,0,0,0,0,-0.2881,-0.288,-0.2859,-0.2858,-0.2858,-0.2829,-0.2828,-0.2828,-0.2786,-0.2786,-0.2785,-0.2784,-0.2755,-0.2755,-0.2754,0,0,0,0,0,0,0,0,0,0,0,0,0,-0.2863,-0.288,-0.2859,-0.2834,-0.2831,-0.2829,-0.2828,-0.2828,-0.2787,-0.2786,-0.2784,-0.2784,-0.2755,-0.2755,-0.2754,-0.2774,0,0,-0.2754,-0.2754,0,0,0,0,0,0,0,0,-0.2864,-0.2862,-0.2838,-0.2835,-0.2832,-0.281,-0.2825,-0.281,-0.2787,-0.2804,-0.2784,-0.2783,-0.2774,-0.2772,-0.2769,-0.2773,-0.2772,-0.2754,-0.2754,-0.2754,-0.2754,0,0,0,0,0,0,0,-0.2865,-0.2863,-0.2847,-0.2837,-0.2834,-0.2824,-0.282,-0.2822,-0.2795,-0.2802,-0.2799,-0.2796,-0.2772,-0.2769,-0.2768,-0.2771,-0.2754,-0.2754,-0.2754,-0.2753,-0.2791,-0.2792,0,0,0,0,0,0,-0.287,-0.2865,-0.2848,-0.2846,-0.2846,-0.2825,-0.282,-0.2818,-0.2795,-0.279,-0.2797,-0.2794,-0.277,-0.2768,-0.2767,-0.2789,-0.2754,-0.2753,-0.2753,-0.2789,-0.2791,-0.2792,0,0,0,0,0,0,-0.2871,-0.2869,-0.2849,-0.2854,-0.2851,-0.2825,-0.2823,-0.2818,-0.2815,-0.2791,-0.2786,-0.2798,-0.2769,-0.2767,-0.2773,-0.2788,-0.2753,-0.2753,-0.2788,-0.279,-0.2791,-0.2834,0,0,0,0,0,0,-0.2872,-0.2869,-0.2877,-0.2855,-0.2851,-0.2855,-0.2824,-0.2818,-0.2815,-0.2811,-0.2791,-0.2787,-0.2768,-0.2773,-0.2773,-0.2787,-0.2753,-0.2787,-0.2789,-0.2791,-0.2831,-0.2837,-0.2842,0,0,0,0,0,-0.2873,-0.289,-0.2877,-0.2876,-0.2859,-0.2856,-0.2854,-0.2832,-0.2816,-0.2823,-0.2808,-0.2788,-0.2786,-0.2774,-0.2773,-0.2787,-0.2786,-0.2788,-0.2791,-0.2829,-0.2836,-0.2842,0,0,0,0,0,0,-0.2915,-0.2887,-0.2872,-0.2883,-0.2872,-0.2849,-0.2858,-0.284,-0.2833,-0.283,-0.2803,-0.2799,-0.2808,-0.2798,-0.2786,-0.2805,-0.2783,-0.2785,-0.2812,-0.2818,-0.2824,-0.2826,-0.2753,0,0,0,0,0,-0.2925,-0.2925,-0.29,-0.2913,-0.2908,-0.2884,-0.2882,-0.2865,-0.2853,-0.2848,-0.2833,-0.2823,-0.2819,-0.2818,-0.2814,-0.2829,-0.2824,-0.2838,-0.2843,-0.2848,-0.2851,-0.2858,-0.2864,-0.28,-0.28,-0.28,0,0,-0.2948,-0.2932,-0.2934,-0.2921,-0.291,-0.2911,-0.288,-0.2882,-0.2882,-0.2849,-0.2853,-0.2842,-0.2828,-0.2839,-0.2843,-0.2831,-0.2867,-0.2851,-0.2855,-0.2855,-0.2861,-0.2868,-0.2873,-0.2802,-0.2802,-0.2801,0,0,-0.2988,-0.2976,-0.2985,-0.2975,-0.296,-0.2943,-0.2946,-0.2925,-0.2916,-0.292,-0.2895,-0.2895,-0.289,-0.2881,-0.2876,-0.2913,-0.2895,-0.2912,-0.294,-0.2948,-0.2953,-0.2958,-0.2972,-0.2977,-0.2915,-0.2915,-0.2915,0,-0.3018,-0.3017,-0.2992,-0.2995,-0.2991,-0.2959,-0.2968,-0.296,-0.2944,-0.2942,-0.2929,-0.2922,-0.291,-0.2919,-0.2928,-0.2924,-0.2926,-0.2915,-0.2954,-0.2959,-0.2962,-0.2975,-0.2981,-0.2917,-0.2917,-0.2917,-0.2916,0,-0.3055,-0.3055,-0.3064,-0.3049,-0.3045,-0.3051,-0.3027,-0.3026,-0.301,-0.2995,-0.3,-0.2985,-0.2977,-0.2978,-0.2962,-0.2984,-0.2977,-0.2959,-0.2936,-0.2971,-0.2983,-0.2988,-0.2921,-0.292,-0.2919,-0.2918,0,0,-0.3122,-0.3093,-0.3097,-0.309,-0.307,-0.307,-0.3075,-0.3067,-0.3067,-0.3057,-0.3061,-0.3057,-0.304,-0.3035,-0.3017,-0.3024,-0.3055,-0.3006,-0.3005,-0.3016,-0.3079,-0.3094,-0.31,-0.3042,-0.3043,-0.3044,-0.3081,0,-0.316,-0.3166,-0.3144,-0.3156,-0.3156,-0.3126,-0.313,-0.3119,-0.3105,-0.3104,-0.3088,-0.3086,-0.3064,-0.3061,-0.3066,-0.305,-0.3068,-0.3047,-0.3046,-0.3047,-0.3052,-0.3106,-0.3121,-0.3157,-0.3085,-0.3086,-0.3086,0,-0.3205,-0.3197,-0.321,-0.3189,-0.3189,-0.3193,-0.3184,-0.3182,-0.3169,-0.3158,-0.3152,-0.3131,-0.3135,-0.3112,-0.3117,-0.3103,-0.3101,-0.3094,-0.3094,-0.3095,-0.307,-0.3109,-0.3168,-0.3174,-0.3093,-0.3093,-0.3092,0,-0.3254,-0.3247,-0.3253,-0.3248,-0.3224,-0.3228,-0.3219,-0.3204,-0.3201,-0.3193,-0.319,-0.3183,-0.3179,-0.3174,-0.3153,-0.3137,-0.316,-0.3135,-0.3152,-0.3153,-0.316,-0.316,-0.3221,-0.3156,-0.3156,-0.3156,-0.3156,0,-0.33,-0.3309,-0.3275,-0.328,-0.3289,-0.3262,-0.3272,-0.326,-0.3247,-0.3248,-0.3221,-0.3224,-0.3194,-0.3193,-0.3176,-0.3183,-0.3182,-0.3174,-0.3169,-0.3177,-0.3178,-0.3176,-0.3174,-0.3158,-0.3157,-0.3157,-0.3157,0,-0.3357,-0.3335,-0.334,-0.3317,-0.3311,-0.3319,-0.33,-0.3303,-0.3287,-0.3289,-0.3288,-0.3263,-0.3261,-0.3238,-0.3231,-0.3219,-0.3233,-0.3223,-0.3238,-0.3235,-0.3254,-0.3253,-0.3317,-0.3324,-0.3254,-0.3255,-0.3256,0,-0.3388,-0.3394,-0.3372,-0.3371,-0.3362,-0.3361,-0.3357,-0.3331,-0.3328,-0.3313,-0.3318,-0.3313,-0.3308,-0.3305,-0.3287,-0.3281,-0.3271,-0.3294,-0.327,-0.3278,-0.3273,-0.3273,-0.3274,-0.3299,-0.33,-0.3301,-0.3302,0,-0.3445,-0.3434,-0.343,-0.3422,-0.3418,-0.3411,-0.3402,-0.3402,-0.3373,-0.3372,-0.3369,-0.3364,-0.3356,-0.3352,-0.3343,-0.3333,-0.3313,-0.3309,-0.3313,-0.3321,-0.333,-0.3327,-0.3253,-0.3308,-0.3307,-0.3307,-0.3307,-0.3306,-0.3491,-0.3496,-0.348,-0.3477,-0.3467,-0.3459,-0.3461,-0.3445,-0.3442,-0.3433,-0.3417,-0.3417,-0.3403,-0.3388,-0.338,-0.3379,-0.3367,-0.3373,-0.3374,-0.3376,-0.3381,-0.3329,-0.3377,-0.3377,-0.3377,-0.3376,-0.3376,0,-0.3548,-0.3537,-0.3534,-0.3522,-0.3519,-0.3499,-0.3488,-0.3487,-0.3487,-0.3475,-0.347,-0.3467,-0.3462,-0.3443,-0.3436,-0.344,-0.343,-0.3439,-0.3439,-0.3437,-0.3391,-0.3389,-0.3446,-0.3446,-0.3446,-0.3446,-0.3446,-0.3446,-0.3578,-0.3585,-0.3571,-0.3573,-0.3561,-0.356,-0.3555,-0.3548,-0.3539,-0.3536,-0.3532,-0.3519,-0.3505,-0.3497,-0.3492,-0.3487,-0.3486,-0.3498,-0.349,-0.3447,-0.344,-0.3434,-0.3432,-0.3498,-0.3498,-0.3536,-0.3536,-0.3537]},{"header":{"parameterUnit":"m.s-1","parameterCategory":1,"la1":30.2991,"la2":30.254,"lo1":-89.0895,"lo2":-89.0444,"dy":0.0017,"dx":0.0017,"nx":28,"ny":28,"refTime":"2023-09-08T09:00:00:Z","depth":0,"parameterNumber":3,"parameterNumberName":"V-component_of_WINDS"},"data":[0,0,0,0,0,0,0,0,0,0,0,0,0,0,0,0,0,0,0,0,0,0,0,0,0,0,0,0,0,0,0,0,0,0,0,0,0,0,0,0,0,0,0,0,0,0,0,0,0,0,0,0,0,0,0,0,0,0,-1.1626,-1.1626,0,-1.1641,-1.1641,-1.1641,-1.1636,-1.1636,-1.1636,-1.1635,-1.1649,-1.1649,-1.165,0,0,0,0,0,0,0,0,0,0,0,0,0,-1.1593,-1.1594,-1.1626,-1.1626,-1.1627,-1.1641,-1.1641,-1.1641,-1.1636,-1.1636,-1.1636,-1.1635,-1.1649,-1.1649,-1.165,0,0,0,0,0,0,0,0,0,0,0,0,0,-1.1608,-1.1594,-1.1626,-1.1626,-1.1626,-1.1641,-1.1641,-1.1641,-1.1637,-1.1636,-1.1636,-1.1635,-1.1648,-1.1649,-1.165,-1.1666,0,0,-1.1653,-1.1654,0,0,0,0,0,0,0,0,-1.1607,-1.1609,-1.1626,-1.1626,-1.1626,-1.1636,-1.1634,-1.165,-1.1637,-1.1633,-1.1635,-1.1635,-1.1645,-1.1646,-1.165,-1.1666,-1.1667,-1.1653,-1.1654,-1.1654,-1.1655,0,0,0,0,0,0,0,-1.1606,-1.1608,-1.1632,-1.1626,-1.1626,-1.1625,-1.1626,-1.1637,-1.1641,-1.1633,-1.1633,-1.1634,-1.1645,-1.1649,-1.165,-1.1667,-1.1653,-1.1654,-1.1655,-1.1655,-1.1699,-1.1699,0,0,0,0,0,0,-1.1605,-1.1607,-1.1632,-1.1632,-1.1615,-1.1626,-1.1628,-1.1634,-1.1641,-1.1642,-1.1635,-1.1634,-1.1648,-1.1649,-1.1651,-1.1671,-1.1654,-1.1655,-1.1656,-1.1698,-1.1699,-1.1699,0,0,0,0,0,0,-1.1604,-1.1607,-1.1631,-1.162,-1.1623,-1.1627,-1.1634,-1.1634,-1.1638,-1.1643,-1.1643,-1.1638,-1.1647,-1.1649,-1.1663,-1.1671,-1.1656,-1.1657,-1.1697,-1.1698,-1.1699,-1.171,0,0,0,0,0,0,-1.1603,-1.1607,-1.1613,-1.162,-1.1623,-1.1643,-1.1634,-1.1635,-1.164,-1.1639,-1.1646,-1.1647,-1.1647,-1.1661,-1.1663,-1.1672,-1.1657,-1.1697,-1.1698,-1.1699,-1.1709,-1.1711,-1.1713,0,0,0,0,0,-1.1602,-1.1614,-1.1613,-1.1616,-1.1631,-1.1643,-1.1645,-1.1646,-1.1641,-1.1647,-1.165,-1.1646,-1.1669,-1.1662,-1.1665,-1.1674,-1.1696,-1.1697,-1.1699,-1.1708,-1.171,-1.1713,0,0,0,0,0,0,-1.1607,-1.1615,-1.1614,-1.1629,-1.1636,-1.1643,-1.165,-1.1649,-1.1656,-1.1655,-1.1655,-1.1657,-1.1671,-1.1673,-1.1666,-1.169,-1.1682,-1.1684,-1.1688,-1.169,-1.1692,-1.1692,-1.1658,0,0,0,0,0,-1.161,-1.162,-1.1626,-1.1639,-1.1643,-1.1646,-1.1651,-1.1651,-1.1658,-1.166,-1.1664,-1.167,-1.1679,-1.1685,-1.1693,-1.1709,-1.1711,-1.1716,-1.1718,-1.172,-1.1722,-1.1732,-1.1735,-1.1703,-1.1703,-1.1703,0,0,-1.1616,-1.1622,-1.1628,-1.164,-1.1645,-1.1656,-1.1648,-1.1659,-1.1666,-1.1662,-1.1675,-1.1678,-1.1685,-1.17,-1.1707,-1.1703,-1.1731,-1.1721,-1.1723,-1.1724,-1.1733,-1.1736,-1.1739,-1.1704,-1.1704,-1.1704,0,0,-1.1633,-1.1638,-1.165,-1.1655,-1.1664,-1.1666,-1.1669,-1.1676,-1.1679,-1.1692,-1.1689,-1.1698,-1.1713,-1.1718,-1.1723,-1.1743,-1.174,-1.1745,-1.1756,-1.1766,-1.1768,-1.1771,-1.1779,-1.1782,-1.1747,-1.1747,-1.1747,0,-1.1639,-1.1655,-1.1656,-1.1668,-1.1673,-1.1671,-1.1683,-1.1688,-1.1698,-1.1703,-1.1698,-1.1718,-1.1722,-1.1739,-1.1744,-1.1747,-1.1751,-1.1745,-1.1768,-1.177,-1.1772,-1.178,-1.1783,-1.1748,-1.1748,-1.1748,-1.1748,0,-1.1663,-1.1674,-1.1682,-1.1694,-1.1701,-1.1712,-1.1715,-1.1722,-1.1722,-1.1725,-1.1739,-1.1744,-1.1754,-1.1758,-1.1757,-1.1775,-1.1773,-1.1768,-1.176,-1.1776,-1.1784,-1.1786,-1.1749,-1.1748,-1.1748,-1.1748,0,0,-1.1683,-1.1696,-1.1699,-1.1705,-1.1714,-1.1723,-1.1734,-1.1745,-1.1751,-1.1758,-1.1769,-1.1782,-1.1778,-1.1784,-1.1783,-1.1792,-1.1809,-1.1787,-1.1787,-1.1792,-1.1831,-1.1835,-1.1838,-1.1807,-1.1808,-1.1808,-1.1831,0,-1.1701,-1.1723,-1.1725,-1.1745,-1.1755,-1.1754,-1.1764,-1.1771,-1.1774,-1.1783,-1.1786,-1.1796,-1.179,-1.1794,-1.1802,-1.1805,-1.1817,-1.1804,-1.1817,-1.1818,-1.1817,-1.1842,-1.1846,-1.1867,-1.1833,-1.1834,-1.1834,0,-1.1725,-1.1735,-1.1756,-1.1765,-1.177,-1.1779,-1.179,-1.1799,-1.1807,-1.1809,-1.1815,-1.1814,-1.1827,-1.1818,-1.1835,-1.1826,-1.1832,-1.1835,-1.1835,-1.1837,-1.1828,-1.1846,-1.1874,-1.1877,-1.1839,-1.1838,-1.1838,0,-1.1739,-1.1757,-1.1773,-1.1777,-1.1788,-1.1795,-1.18,-1.1808,-1.1815,-1.1823,-1.1828,-1.1838,-1.1843,-1.1851,-1.1853,-1.1846,-1.1871,-1.1862,-1.1873,-1.1873,-1.1879,-1.1879,-1.1909,-1.1881,-1.1881,-1.1881,-1.1881,0,-1.176,-1.1773,-1.1779,-1.1789,-1.1804,-1.1806,-1.1821,-1.1825,-1.1832,-1.1842,-1.1841,-1.185,-1.1852,-1.1862,-1.1863,-1.1878,-1.188,-1.1883,-1.1883,-1.1883,-1.1883,-1.1888,-1.1887,-1.1882,-1.1882,-1.1881,-1.1881,0,-1.1778,-1.1783,-1.18,-1.1809,-1.1812,-1.1823,-1.1831,-1.184,-1.1844,-1.1857,-1.186,-1.1865,-1.1877,-1.188,-1.1893,-1.1894,-1.1913,-1.1911,-1.191,-1.191,-1.1922,-1.1921,-1.1957,-1.1962,-1.193,-1.193,-1.193,0,-1.1792,-1.1802,-1.1814,-1.1821,-1.1827,-1.1838,-1.1846,-1.1848,-1.1856,-1.1867,-1.1875,-1.1887,-1.1896,-1.1915,-1.192,-1.1931,-1.193,-1.1942,-1.1932,-1.1932,-1.1932,-1.1932,-1.1933,-1.1944,-1.1944,-1.1945,-1.1945,0,-1.1816,-1.1818,-1.1829,-1.1841,-1.1851,-1.186,-1.1869,-1.1875,-1.1879,-1.1887,-1.19,-1.1908,-1.1923,-1.1935,-1.1946,-1.1951,-1.1949,-1.1948,-1.1952,-1.1953,-1.1952,-1.1954,-1.1917,-1.1947,-1.1947,-1.1947,-1.1947,-1.1947,-1.1833,-1.1843,-1.1853,-1.1866,-1.1873,-1.1882,-1.1892,-1.1897,-1.1908,-1.1921,-1.1922,-1.1936,-1.1944,-1.1959,-1.1965,-1.1976,-1.1972,-1.1977,-1.1978,-1.1979,-1.1981,-1.195,-1.1978,-1.1977,-1.1977,-1.1977,-1.1977,0,-1.1858,-1.1865,-1.1876,-1.189,-1.19,-1.1898,-1.1909,-1.1917,-1.193,-1.1939,-1.1949,-1.1964,-1.1976,-1.1982,-1.1994,-1.2002,-1.2002,-1.2005,-1.2005,-1.2007,-1.1983,-1.198,-1.2006,-1.2006,-1.2006,-1.2006,-1.2006,-1.2006,-1.1872,-1.1889,-1.1893,-1.1914,-1.192,-1.1935,-1.1941,-1.195,-1.1957,-1.1974,-1.1985,-1.1989,-1.1997,-1.201,-1.2021,-1.2022,-1.2027,-1.2032,-1.2033,-1.2011,-1.2008,-1.2005,-1.2002,-1.2032,-1.2032,-1.2055,-1.2056,-1.2056]}]]